Volver al catálogo

FENGYUN 1C DEB

ActivoSSO
NORAD 30251·DEBRIS·🇨🇳 China

Lanzado May 10, 1999 desde Taiyuan Satellite Launch Center

Loading…

Próximos Pases (próximas 24 horas)

TLE

ActualizadoSource: Space-Track

Época: Sep 14, 2026, 10:38 UTC

1 30251U 99025XL  26257.44323126  .00000584  00000-0  24213-3 0  9995
2 30251  99.0261 111.1627 0050245 250.7438 230.4256 14.29864267 20816

Sigue FENGYUN 1C DEB en tiempo real con AllMySat

Download on the App Store